This demonstration page uses our WeatherBlox Daily Observations layout. Learn more.

38.88101, -77.10428

Hourly Observations for January 16, 2020

Temp ( °F °C ) Dew Point ( °F °C ) Humidity (%) Winds ( mph kmh ) Pressure ( in mb ) Visibility ( mi km ) Precip ( " mm )
12:52 am 00:52 Mostly Cloudy 49 9.4 46 7.8 90 90 SSW 10 17 29.95 1014 10 16.0934 0 0
1:52 am 01:52 Mostly Clear 48 8.9 46 7.8 93 93 SSW 6 9 29.92 1013 10 16.0934 0 0
2:52 am 02:52 Partly Cloudy 49 9.4 46 7.8 90 90 SSW 5 7 29.91 1013 10 16.0934 0 0
3:52 am 03:52 Partly Cloudy 48 8.9 46 7.8 93 93 S 7 11 29.89 1012 10 16.0934 0 0
4:52 am 04:52 Cloudy 50 10 48 8.9 93 93 NNW 8 13 29.94 1014 10 16.0934 0 0
5:52 am 05:52 Partly Cloudy 55 12.8 44 6.7 67 67 WNW 18 30 29.96 1015 10 16.0934 0 0
6:52 am 06:52 Partly Cloudy 56 13.3 38 3.3 51 51 W 10 17 30 1016 10 16.0934 0 0
7:52 am 07:52 Partly Cloudy 56 13.3 37 2.8 49 49 WNW 20 31 30.02 1017 10 16.0934 0 0
8:52 am 08:52 Mostly Sunny 55 12.8 34 1.1 45 45 WNW 24 39 30.07 1018 10 16.0934 0 0
9:52 am 09:52 Partly Cloudy 54 12.2 29 -1.7 38 38 WNW 24 39 30.11 1020 10 16.0934 0 0
10:52 am 10:52 Mostly Sunny 55 12.8 28 -2.2 35 35 WNW 16 26 30.13 1020 10 16.0934 0 0
11:52 am 11:52 Mostly Sunny 54 12.2 23 -5 30 30 NW 20 31 30.11 1020 10 16.0934 0 0
12:52 pm 12:52 Mostly Sunny 54 12.2 24 -4.4 31 31 NW 18 30 30.1 1019 10 16.0934 0 0
1:52 pm 13:52 Mostly Sunny 52 11.1 23 -5 32 32 WNW 18 30 30.12 1020 10 16.0934 0 0
2:52 pm 14:52 Partly Cloudy 50 10 23 -5 35 35 NNW 21 33 30.15 1021 10 16.0934 0 0
3:52 pm 15:52 Partly Cloudy 49 9.4 22 -5.6 35 35 NNW 17 28 30.17 1022 10 16.0934 0 0
4:52 pm 16:52 Mostly Cloudy 48 8.9 20 -6.7 33 33 NW 23 37 30.2 1023 10 16.0934 0 0
5:52 pm 17:52 Partly Cloudy 45 7.2 22 -5.6 40 40 NNW 20 31 30.26 1025 10 16.0934 0 0
6:52 pm 18:52 Partly Cloudy 43 6.1 20 -6.7 40 40 NW 16 26 30.3 1026 10 16.0934 0 0
7:52 pm 19:52 Partly Cloudy 41 5 22 -5.6 47 47 NNW 28 44 30.35 1028 10 16.0934 0 0
8:52 pm 20:52 Mostly Clear 39 3.9 23 -5 53 53 NW 22 35 30.36 1028 10 16.0934 0 0
9:52 pm 21:52 Mostly Clear 39 3.9 20 -6.7 46 46 NW 17 28 30.38 1029 10 16.0934 0 0
10:52 pm 22:52 Mostly Clear 38 3.3 20 -6.7 48 48 NW 23 37 30.41 1030 10 16.0934 0 0
11:52 pm 23:52 Mostly Clear 37 2.8 20 -6.7 50 50 NW 14 22 30.43 1031 10 16.0934 0 0

Powered by AerisWeather